| time (UTC) | temp F | wind direction | speed MPH | gust MPH | rain 1hr in | rain 24hr in | rain mn in | humidity % | barometer mb |
| 20260503202016 | 53 | 248 | 5.0 | 11.0 | 0.00 | 0.00 | 0.00 | 77 | 1013.3 |
| 20260503201016 | 53 | 270 | 4.0 | 9.0 | 0.00 | 0.00 | 0.00 | 76 | 1013.2 |
| 20260503200016 | 52 | 270 | 3.0 | 11.0 | 0.00 | 0.00 | 0.00 | 79 | 1013.3 |
| 20260503195516 | 52 | 180 | 3.0 | 10.0 | 0.00 | 0.00 | 0.00 | 79 | 1013.3 |
| 20260503194516 | 52 | 270 | 4.0 | 10.0 | 0.00 | 0.00 | 0.00 | 77 | 1013.3 |
| 20260503193516 | 52 | 270 | 1.0 | 4.0 | 0.00 | 0.00 | 0.00 | 78 | 1013.4 |
| 20260503192516 | 53 | 248 | 1.0 | 3.0 | 0.00 | 0.00 | 0.00 | 78 | 1013.4 |
| 20260503191536 | 53 | 203 | 1.0 | 4.0 | 0.00 | 0.00 | 0.00 | 78 | 1013.6 |
| 20260503190516 | 52 | 180 | 2.0 | 6.0 | 0.00 | 0.00 | 0.00 | 79 | 1013.4 |
| 20260503185516 | 52 | 180 | 2.0 | 8.0 | 0.00 | 0.00 | 0.00 | 78 | 1013.4 |
| 20260503184516 | 52 | 248 | 2.0 | 7.0 | 0.00 | 0.00 | 0.00 | 78 | 1013.4 |
| 20260503183536 | 52 | 248 | 2.0 | 8.0 | 0.00 | 0.00 | 0.00 | 82 | 1013.3 |
| 20260503182516 | 51 | 270 | 3.0 | 9.0 | 0.00 | 0.00 | 0.00 | 82 | 1013.3 |
| 20260503181517 | 51 | 225 | 3.0 | 11.0 | 0.00 | 0.00 | 0.00 | 82 | 1013.2 |
| 20260503180516 | 51 | 203 | 2.0 | 7.0 | 0.00 | 0.00 | 0.00 | 84 | 1013.1 |
| 20260503175516 | 50 | 180 | 4.0 | 10.0 | 0.00 | 0.00 | 0.00 | 85 | 1013.3 |
| 20260503174516 | 49 | 203 | 3.0 | 8.0 | 0.00 | 0.00 | 0.00 | 89 | 1013.2 |
| 20260503173516 | 49 | 248 | 4.0 | 10.0 | 0.00 | 0.01 | 0.00 | 89 | 1013.1 |
| 20260503172536 | 48 | 180 | 3.0 | 9.0 | 0.00 | 0.01 | 0.00 | 89 | 1013.0 |
| 20260503171516 | 48 | 180 | 2.0 | 6.0 | 0.00 | 0.01 | 0.00 | 92 | 1013.0 |
| 20260503170536 | 47 | 203 | 3.0 | 8.0 | 0.00 | 0.01 | 0.00 | 92 | 1012.9 |
| 20260503150516 | 47 | 0.0 | 3.0 | 0.00 | 0.01 | 0.00 | 92 | 1012.5 | |
| 20260503131015 | 45 | 270 | 1.0 | 6.0 | 0.00 | 0.01 | 0.00 | 94 | 1011.4 |
| 20260503110515 | 46 | 0.0 | 1.0 | 0.00 | 0.01 | 0.00 | 94 | 1011.6 | |
| 20260503081517 | 47 | 0.0 | 0.0 | 0.00 | 0.01 | 0.00 | 94 | 1011.9 | |
| 20260503080537 | 47 | 0.0 | 0.0 | 0.00 | 0.01 | 0.00 | 94 | 1012.1 | |
| 20260503072517 | 47 | 0.0 | 0.0 | 0.00 | 0.01 | 0.00 | 93 | 1012.1 | |
| 20260503071517 | 47 | 0.0 | 0.0 | 0.00 | 0.01 | 0.00 | 93 | 1011.9 | |
| 20260503070517 | 47 | 0.0 | 2.0 | 0.00 | 0.01 | 0.00 | 93 | 1011.9 | |
| 20260503054515 | 48 | 0.0 | 0.0 | 0.00 | 0.01 | 0.01 | 91 | 1012.0 | |
| 20260503053535 | 48 | 0.0 | 1.0 | 0.00 | 0.01 | 0.01 | 91 | 1012.1 | |
| 20260503052515 | 48 | 0.0 | 2.0 | 0.00 | 0.01 | 0.01 | 91 | 1012.2 | |
| 20260503051515 | 48 | 0.0 | 3.0 | 0.00 | 0.01 | 0.01 | 91 | 1012.2 | |
| 20260503050535 | 48 | 0.0 | 2.0 | 0.00 | 0.01 | 0.01 | 91 | 1012.1 | |
| 20260503045515 | 48 | 0.0 | 1.0 | 0.00 | 0.01 | 0.01 | 90 | 1012.0 | |
| 20260503044515 | 48 | 0.0 | 2.0 | 0.00 | 0.01 | 0.01 | 90 | 1011.8 | |
| 20260503043515 | 48 | 0.0 | 0.0 | 0.00 | 0.01 | 0.01 | 89 | 1011.8 | |
| 20260503042515 | 49 | 0.0 | 0.0 | 0.00 | 0.01 | 0.01 | 89 | 1011.8 | |
| 20260503041515 | 49 | 0.0 | 1.0 | 0.00 | 0.01 | 0.01 | 89 | 1011.8 | |
| 20260503040515 | 49 | 0.0 | 1.0 | 0.00 | 0.01 | 0.01 | 89 | 1011.8 | |
| 20260503035515 | 49 | 0.0 | 0.0 | 0.00 | 0.01 | 0.01 | 89 | 1011.6 | |
| 20260503034515 | 49 | 0.0 | 2.0 | 0.00 | 0.01 | 0.01 | 88 | 1011.4 | |
| 20260503033535 | 50 | 0.0 | 1.0 | 0.00 | 0.01 | 0.01 | 88 | 1011.4 | |
| 20260503032515 | 50 | 0.0 | 2.0 | 0.00 | 0.01 | 0.01 | 87 | 1011.3 | |
| 20260503031515 | 50 | 0.0 | 1.0 | 0.00 | 0.01 | 0.01 | 87 | 1011.2 | |
| 20260503030515 | 51 | 0.0 | 1.0 | 0.00 | 0.01 | 0.01 | 87 | 1011.4 | |
| 20260503025515 | 51 | 45 | 1.0 | 3.0 | 0.00 | 0.01 | 0.01 | 86 | 1011.1 |
| 20260503024515 | 52 | 45 | 1.0 | 4.0 | 0.00 | 0.01 | 0.01 | 86 | 1011.2 |
| 20260503023517 | 52 | 0.0 | 2.0 | 0.00 | 0.01 | 0.01 | 85 | 1011.1 | |
| 20260503022517 | 53 | 0.0 | 2.0 | 0.00 | 0.01 | 0.01 | 85 | 1011.1 | |
| 20260503021558 | 53 | 0.0 | 1.0 | 0.00 | 0.01 | 0.01 | 85 | 1011.0 | |
| 20260503020517 | 54 | 45 | 1.0 | 3.0 | 0.00 | 0.01 | 0.01 | 84 | 1011.2 |
| 20260503015517 | 55 | 0.0 | 2.0 | 0.00 | 0.01 | 0.01 | 82 | 1011.3 | |
| 20260503014517 | 55 | 23 | 1.0 | 4.0 | 0.00 | 0.01 | 0.01 | 82 | 1011.4 |
| 20260503013517 | 56 | 23 | 1.0 | 3.0 | 0.00 | 0.01 | 0.01 | 81 | 1011.5 |
| 20260503012517 | 56 | 23 | 1.0 | 3.0 | 0.00 | 0.01 | 0.01 | 81 | 1011.6 |
| 20260503011518 | 57 | 0.0 | 3.0 | 0.00 | 0.01 | 0.01 | 80 | 1011.6 | |
| 20260503010517 | 57 | 23 | 1.0 | 4.0 | 0.00 | 0.01 | 0.01 | 80 | 1011.6 |
| 20260503005522 | 57 | 0 | 1.0 | 5.0 | 0.00 | 0.01 | 0.01 | 78 | 1011.5 |
| 20260503004517 | 58 | 0 | 1.0 | 4.0 | 0.00 | 0.01 | 0.01 | 76 | 1011.7 |
| 20260503003537 | 59 | 23 | 2.0 | 5.0 | 0.00 | 0.01 | 0.01 | 76 | 1011.8 |
| 20260503002516 | 59 | 23 | 1.0 | 3.0 | 0.00 | 0.01 | 0.01 | 77 | 1011.8 |
| 20260503001517 | 59 | 23 | 2.0 | 4.0 | 0.00 | 0.01 | 0.01 | 76 | 1011.9 |
| 20260503000517 | 60 | 45 | 2.0 | 5.0 | 0.00 | 0.01 | 0.01 | 75 | 1011.9 |
| 20260502235517 | 60 | 23 | 2.0 | 5.0 | 0.00 | 0.01 | 0.01 | 75 | 1012.0 |
| 20260502235017 | 59 | 0.0 | 2.0 | 0.00 | 0.01 | 0.01 | 77 | 1011.9 | |
| 20260502234037 | 59 | 23 | 2.0 | 5.0 | 0.00 | 0.01 | 0.01 | 76 | 1012.0 |
| 20260502233017 | 59 | 23 | 2.0 | 4.0 | 0.00 | 0.01 | 0.01 | 75 | 1012.1 |
| 20260502232017 | 59 | 0 | 2.0 | 5.0 | 0.00 | 0.01 | 0.01 | 76 | 1012.2 |
| 20260502231017 | 60 | 338 | 3.0 | 6.0 | 0.00 | 0.01 | 0.01 | 74 | 1012.3 |
| 20260502230015 | 61 | 45 | 3.0 | 7.0 | 0.00 | 0.01 | 0.01 | 74 | 1012.5 |
| 20260502225037 | 61 | 45 | 2.0 | 7.0 | 0.00 | 0.01 | 0.01 | 73 | 1012.6 |
| 20260502224016 | 62 | 45 | 1.0 | 4.0 | 0.00 | 0.01 | 0.01 | 72 | 1012.9 |
| 20260502223017 | 61 | 0 | 2.0 | 5.0 | 0.00 | 0.01 | 0.01 | 75 | 1012.8 |
| 20260502222037 | 61 | 23 | 2.0 | 6.0 | 0.00 | 0.01 | 0.01 | 73 | 1013.1 |
| 20260502221037 | 62 | 0 | 1.0 | 6.0 | 0.00 | 0.01 | 0.01 | 71 | 1013.3 |
| 20260502220037 | 62 | 23 | 2.0 | 6.0 | 0.00 | 0.01 | 0.01 | 73 | 1013.4 |
| 20260502215016 | 62 | 0 | 3.0 | 6.0 | 0.00 | 0.01 | 0.01 | 72 | 1013.5 |
| 20260502214037 | 61 | 0 | 1.0 | 8.0 | 0.00 | 0.01 | 0.01 | 74 | 1013.5 |
| 20260502213017 | 62 | 45 | 2.0 | 6.0 | 0.00 | 0.01 | 0.01 | 73 | 1013.6 |
| 20260502212016 | 61 | 23 | 1.0 | 5.0 | 0.00 | 0.01 | 0.01 | 74 | 1013.5 |
| 20260502211016 | 61 | 23 | 2.0 | 6.0 | 0.00 | 0.01 | 0.01 | 74 | 1013.6 |
| 20260502210018 | 61 | 23 | 3.0 | 6.0 | 0.00 | 0.01 | 0.01 | 74 | 1013.7 |
| 20260502205016 | 60 | 0 | 2.0 | 5.0 | 0.00 | 0.01 | 0.01 | 76 | 1013.8 |
| 20260502204017 | 60 | 23 | 2.0 | 6.0 | 0.00 | 0.01 | 0.01 | 77 | 1013.8 |
| 20260502203016 | 60 | 0 | 2.0 | 7.0 | 0.00 | 0.01 | 0.01 | 77 | 1013.8 |